sat.trackr.live / text

‹ back to catalog

STARLINK-36641

NORAD 67589 · 2026-018A

PAYLOAD ACTIVE UNKNOWN

§ Identity

Operator
Country
US
Launch date
2026-01-29
Launch site
AFWTR
Launch vehicle
Mass (kg)
RCS (m²)

Purposes: comms

External: N2YO · Heavens-Above · Gunter

§ Orbital elements

Epoch: 2026-09-19T21:27:17.586720Z

Period
93.90 min
Inclination
97.2861°
Eccentricity
0.0001157
Mean motion
15.33471658 rev/d
Perigee alt
464.7 km
Apogee alt
466.3 km
Semi-major
6,843.6 km
B*
5.7379e-4
RAAN
326.2984°
Arg perigee
273.6531°
Mean anomaly
86.4580°
Rev number
3,709

§ Raw data

STARLINK-366411 67589U 26018A   26262.89395355  .00018510  00000+0  57379-3 0  99952 67589  97.2861 326.2984 0001157 273.6531  86.4580 15.33471658 37098

JSON: /api/v1/satellites/67589 · /tle

For live sub-satellite position, see the globe view (requires WebGL).

§ Visibility from observer

Set your observer location to see the next 7 days of passes ≥ 10°. The values pass through the URL so the page stays shareable.

No JS? Fill the form by hand. The geolocation button needs JavaScript.